SAUDICOMSAT 7

Satellite information

Favourite Embed

Satellite Type and Status

PAYLOADIN ORBIT

Key statistics

Satellite SAUDICOMSAT 7 at a glance.

Uptime

6816

Days in orbit

Revolutions

≈ 14.7

Per day

Orbit

SSO

Sun Synchronous Orbit

Inclination

98.4

Latest

Satellite identification and parameters

Extended collection of information and parameters for SAUDICOMSAT 7.

Object identification

Identified? True

Debris? False

Object name: SAUDICOMSAT 7

International designator: 2007-012C

Object number (NORAD): 31119

Object ID (CCSDS): 31119

Country: SAUDI ARABIA (SAUD)

Current information (Y/N): Y

RCS size: SMALL

Orbital parameters

Period: 98.242 minutes

Inclination: 98.3539 deg

SMA: 7052.73 km

Apoapsis: 714.964 km

Periapsis: 634.227 km

RAAN: 311.4975 deg

Eccentricy: 0.0057238

Argument of periapsis: 63.9978 deg

Mean anomaly: 296.7105 deg

Mean motion: 14.657734 rev/day

Mean motion (dot): 0.00001373 rev/day2

B* drag term: 0.00025526 1/REarth

Two-line elements (TLE)

Creation date: Dec. 12, 2025, 7:26 a.m.

Reference frame: TEME

Reference center: EARTH

Epoch: Dec. 11, 2025, 9:21 p.m. UTC

TLE line 0: 0 SAUDICOMSAT 7

TLE line 1: 1 31119U 07012C 25345.89000737 .00001373 00000-0 25526-3 0 9995

TLE line 2: 2 31119 98.3539 311.4975 0057238 63.9978 296.7105 14.65773400994998

Live tracking on map

Real-time ground track for satellite SAUDICOMSAT 7.

In-orbit conjunctions

There are no conjunctions computed for SAUDICOMSAT 7, at the moment. Check back to stay up to date, as we update our databases every day.

Go to all conjunctions

Associated space launch

Rideshare mission with Egyptian and Saudi Arabian Earth observation satellites as well as 14 American cubesats

SAUDICOMSAT 7 was lifted into orbit during the mission ‘Dnepr | EgyptSat 1 & Saudisat 3’, on board a Dnepr space rocket.

The launch took place on April 17, 2007, 6:46 a.m. from 109/95.

For more information about the launch, click the button.

Launch to space Dnepr | EgyptSat 1 & Saudisat 3
Dnepr | EgyptSat 1 & Saudisat 3

Agency: N/A

Status: Launch Successful

Launch date: April 17, 2007, 6:46 a.m. UTC

Rocket: Dnepr

Launch pad: 109/95

Location: Baikonur Cosmodrome, Republic of Kazakhstan

...

Latest news about this satellite

There are no fresh news available about this satellite. Check back as we update our databases every day.


Newsletter sign-up

Weekly statistics, charts and insights to help you stay on top of the space industry.